Location: Lafig�re
(44.4503°N, 4.0357°E)
Time: 03:09:38
(UTC+00:00)

Transit 4A - Pass Details

Date: 23 January 2021
Orbit: 866 x 978 km, 66.8° (Epoch: 02 March)

Event Time Altitude Azimuth Distance (km) Brightness Sun altitude
Rises 21:03:17 0° 263° (W) 3,675 11.6 -46.3°
Reaches altitude 10° 21:06:40 10° 281° (W) 2,729 10.9 -46.8°
Enters shadow 21:08:46 16° 298° (WNW) 2,304 10.4 -47.2°
Maximum altitude 21:11:10 20° 326° (NW) 2,108 - -47.6°
Drops below altitude 10° 21:15:39 10° 11° (N) 2,711 - -48.3°
Sets 21:19:00 0° 28° (NNE) 3,644 - -48.8°
